Location: Vancouver
(49.2500°N, 123.1330°W)
Time: 14:48:15
(UTC-07:00)

AO-27 - Visible Passes

Search period start: 28 July 2015 00:00
Search period end: 07 August 2015 00:00
Orbit: 786 x 798 km, 98.7° (Epoch: 28 July)

Date Brightness Start Highest point End Pass type
(mag) Time Alt. Az. Time Alt. Az. Time Alt. Az.
28 Jul 8.7 03:20:19 10° NNE 03:25:13 40° E 03:29:33 13° SSE visible
28 Jul 8.6 05:00:01 10° N 05:04:41 33° WNW 05:09:16 10° SW visible
29 Jul 9.5 02:51:52 10° NE 02:55:59 24° E 03:00:12 10° SE visible
29 Jul 7.9 04:30:49 10° N 04:35:54 55° WNW 04:40:57 10° SW visible
30 Jul 10.0 02:24:08 10° ENE 02:26:36 14° E 02:29:19 10° ESE visible
30 Jul 7.7 04:01:46 10° NNE 04:07:00 88° E 04:11:35 14° SSW visible
31 Jul 8.3 03:32:54 10° NNE 03:38:00 51° E 03:42:14 15° S visible
01 Aug 9.1 03:04:18 10° NNE 03:08:50 30° E 03:12:52 12° SSE visible
01 Aug 8.2 04:43:36 10° N 04:48:33 44° WNW 04:53:26 10° SW visible
02 Aug 9.9 02:36:10 10° NE 02:39:31 18° E 02:43:01 10° SE visible
02 Aug 7.7 04:14:29 10° NNE 04:19:42 75° WNW 04:24:15 14° SSW visible
03 Aug 7.9 03:45:33 10° NNE 03:50:44 65° ESE 03:54:54 16° S visible
04 Aug 8.8 03:16:50 10° NNE 03:21:38 38° E 03:25:31 15° SSE visible
04 Aug 8.5 04:56:26 10° N 05:01:10 36° WNW 05:05:49 10° SW visible
05 Aug 9.6 02:48:26 10° NE 02:52:24 22° E 02:56:09 11° SE visible
05 Aug 7.8 04:27:14 10° N 04:32:22 59° WNW 04:36:54 13° SSW visible
06 Aug 10.1 02:20:54 10° ENE 02:22:59 13° E 02:25:19 10° ESE visible
06 Aug 7.7 03:58:13 10° NNE 04:03:27 82° ESE 04:07:33 17° SSW visible
